Voltar ao catálogo

CZ-3C DEB

LostGTO
NORAD 40865·DEBRIS·🇨🇳 China

Lançado Feb 24, 2012 de Xichang Satellite Launch Center

Loading…

TLE

ObsoletoSource: Space-Track

Época: Jan 15, 2024, 06:36 UTC

1 40865U 12008AF  24015.27544154 -.00001292  00000-0 -32639-1 0  9998
2 40865  18.3238 130.5110 7284520 121.6943 328.5761  2.06388877 67065

Acompanhe CZ-3C DEB em tempo real com AllMySat

Download on the App Store